FW0099 Weather Reports


time (UTC)temp
C
wind
direction
speed
KPH
gust
KPH
rain 1hr
cm
rain 24hr
cm
rain mn
cm
humidity
%
barometer
mb
20260507105236 17 75 0.0 4.8 0.00 0.00 0.00 39 1014.8
20260507104216 16 0.0 0.0 0.00 0.00 0.00 41 1014.8
20260507103216 17 0.0 0.0 0.00 0.00 0.00 37 1014.7
20260507102216 18 35 1.6 4.8 0.00 0.00 0.00 38 1014.8
20260507101216 18 0.0 0.0 0.00 0.00 0.00 35 1014.7
20260507100216 18 0.0 0.0 0.00 0.00 0.00 38 1014.7
20260507095216 17 0.0 0.0 0.00 0.00 0.00 44 1014.6
20260507094216 18 0.0 8.0 0.00 0.00 0.00 42 1014.6
20260507093216 17 324 3.2 9.7 0.00 0.00 0.00 48 1014.6
20260507092216 16 316 1.6 4.8 0.00 0.00 0.00 49 1014.5
20260507091216 16 352 1.6 4.8 0.00 0.00 0.00 50 1014.5
20260507090216 17 338 3.2 8.0 0.00 0.00 0.00 48 1014.6
20260507085236 17 333 4.8 9.7 0.00 0.00 0.00 50 1014.5
20260507084216 17 334 4.8 9.7 0.00 0.00 0.00 49 1014.5
20260507083216 16 84 0.0 4.8 0.00 0.00 0.00 48 1014.4
20260507082216 15 0.0 1.6 0.00 0.00 0.00 57 1014.4
20260507081216 15 0.0 1.6 0.00 0.00 0.00 58 1014.4
20260507080216 14 0.0 0.0 0.00 0.00 0.00 59 1014.3
20260507075216 13 268 1.6 3.2 0.00 0.00 0.00 63 1014.3
20260507074216 12 336 0.0 3.2 0.00 0.00 0.00 66 1014.2
20260507073216 12 328 3.2 6.4 0.00 0.00 0.00 67 1014.2
20260507072216 11 36 3.2 4.8 0.00 0.03 0.00 68 1014.1
20260507071216 11 359 0.0 1.6 0.00 0.03 0.00 70 1014.0
20260507070215 10 0.0 0.0 0.00 0.03 0.00 73 1014.0
20260507065240 9 317 0.0 6.4 0.00 0.03 0.00 76 1014.0
20260507064217 9 321 1.6 4.8 0.00 0.05 0.00 78 1014.0
20260507063215 8 0.0 0.0 0.00 0.05 0.00 80 1014.0
20260507062216 8 317 3.2 14.5 0.00 0.05 0.00 81 1013.9
20260507061216 8 0.0 0.0 0.00 0.05 0.00 84 1013.8
20260507060216 7 0.0 0.0 0.00 0.08 0.00 86 1013.7
20260507055239 7 0.0 0.0 0.00 0.08 0.00 86 1013.6
20260507054240 7 0.0 0.0 0.00 0.08 0.00 87 1013.5
20260507053238 7 0.0 0.0 0.00 0.08 0.00 87 1013.6
20260507052216 6 0.0 0.0 0.00 0.08 0.00 88 1013.5
20260507051216 6 0.0 0.0 0.00 0.08 0.00 87 1013.3
20260507050216 6 0.0 0.0 0.00 0.08 0.00 88 1013.2
20260507045215 6 0.0 0.0 0.00 0.08 0.00 88 1013.1
20260507044216 7 0.0 0.0 0.00 0.08 0.00 88 1013.0
20260507043216 7 0.0 0.0 0.00 0.08 0.00 88 1012.9
20260507042216 7 0.0 0.0 0.00 0.10 0.00 87 1012.8
20260507041215 7 0.0 0.0 0.00 0.10 0.00 87 1012.8
20260507040215 7 0.0 0.0 0.00 0.15 0.00 87 1012.6
20260507035236 7 0.0 0.0 0.00 0.18 0.00 87 1012.5
20260507034215 7 0.0 0.0 0.00 0.18 0.00 87 1012.5
20260507033216 7 0.0 0.0 0.00 0.20 0.00 87 1012.5
20260507032216 7 0.0 0.0 0.00 0.20 0.00 87 1012.5
20260507031235 7 0.0 0.0 0.00 0.20 0.00 87 1012.5
20260507030215 8 0.0 0.0 0.00 0.20 0.00 87 1012.4
20260507025215 8 0.0 0.0 0.00 0.20 0.00 87 1012.4
20260507024215 8 0.0 0.0 0.00 0.20 0.00 87 1012.4
20260507023215 8 0.0 0.0 0.00 0.23 0.00 87 1012.2
20260507022215 8 0.0 0.0 0.00 0.23 0.00 87 1012.2
20260507021215 8 0.0 0.0 0.00 0.23 0.00 87 1012.2
20260507020215 8 0.0 0.0 0.00 0.23 0.00 87 1012.1
20260507015215 8 0.0 0.0 0.00 0.23 0.00 87 1012.0
20260507014215 8 0.0 0.0 0.00 0.23 0.00 87 1012.0
20260507013215 8 0.0 0.0 0.00 0.23 0.00 87 1012.0
20260507012215 8 0.0 0.0 0.00 0.23 0.00 87 1012.0
20260507011215 8 0.0 0.0 0.00 0.25 0.00 87 1011.9
20260507010255 8 0.0 0.0 0.00 0.25 0.00 87 1011.8
20260507005215 8 0.0 0.0 0.00 0.25 0.00 87 1011.8
20260507004215 8 0.0 0.0 0.00 0.25 0.00 86 1011.7
20260507003215 8 0.0 0.0 0.00 0.25 0.00 86 1011.7
20260507002215 8 0.0 0.0 0.00 0.25 0.00 86 1011.6
20260507001215 8 0.0 0.0 0.00 0.28 0.00 86 1011.6
20260507000215 8 0.0 0.0 0.00 0.28 0.00 86 1011.6
20260506235215 8 0.0 0.0 0.00 0.28 0.00 86 1011.6
20260506234215 8 0.0 0.0 0.00 0.28 0.00 86 1011.6
20260506233215 8 0.0 0.0 0.00 0.28 0.00 86 1011.5
20260506232235 8 0.0 0.0 0.00 0.28 0.00 86 1011.4
20260506231215 8 0.0 0.0 0.00 0.28 0.00 86 1011.5
20260506230235 8 0.0 0.0 0.00 0.28 0.00 86 1011.4
20260506225215 8 0.0 0.0 0.00 0.30 0.00 86 1011.3
20260506224215 8 0.0 0.0 0.00 0.30 0.00 86 1011.2
20260506223255 8 0.0 0.0 0.00 0.30 0.00 85 1011.2
20260506222215 8 0.0 0.0 0.00 0.30 0.00 85 1011.2
20260506221215 8 0.0 0.0 0.00 0.33 0.00 85 1011.1
20260506220216 8 0.0 0.0 0.00 0.33 0.00 85 1011.1
20260506215216 8 0.0 0.0 0.00 0.33 0.33 85 1011.0
20260506214215 8 0.0 0.0 0.00 0.33 0.33 85 1011.0
20260506213213 8 0.0 0.0 0.00 0.33 0.33 85 1010.9
20260506212233 8 0.0 0.0 0.00 0.33 0.33 85 1010.8
20260506211215 8 0.0 0.0 0.00 0.33 0.33 85 1010.8
20260506210215 8 0.0 0.0 0.00 0.33 0.33 84 1010.7
20260506205215 8 0.0 0.0 0.00 0.33 0.33 83 1010.7
20260506204213 8 0.0 0.0 0.00 0.33 0.33 83 1010.7
20260506203215 8 0.0 0.0 0.00 0.33 0.33 83 1010.7
20260506202215 8 0.0 0.0 0.00 0.33 0.33 83 1010.6
20260506201213 8 0.0 0.0 0.00 0.33 0.33 83 1010.6
20260506200213 8 0.0 0.0 0.00 0.33 0.33 83 1010.5
20260506195213 8 0.0 0.0 0.00 0.33 0.33 83 1010.4
20260506194213 9 0.0 0.0 0.00 0.33 0.33 82 1010.3
20260506193215 9 0.0 0.0 0.00 0.33 0.33 82 1010.2
20260506192215 9 0.0 0.0 0.00 0.33 0.33 82 1010.1
20260506191235 9 0.0 0.0 0.00 0.33 0.33 81 1010.0
20260506190217 9 0.0 0.0 0.00 0.33 0.33 81 1009.9
20260506185217 9 0.0 0.0 0.00 0.33 0.33 80 1009.8
20260506184218 9 0.0 0.0 0.00 0.33 0.33 80 1009.7
20260506183217 9 0.0 0.0 0.00 0.33 0.33 79 1009.7
20260506182217 9 0.0 0.0 0.00 0.33 0.33 79 1009.5
20260506181217 10 0.0 0.0 0.00 0.33 0.33 79 1009.3
20260506180217 10 0.0 0.0 0.00 0.33 0.33 79 1009.2
20260506175217 10 0.0 0.0 0.00 0.33 0.33 79 1009.2
20260506174237 10 88 0.0 1.6 0.00 0.33 0.33 78 1009.1
20260506173217 10 0.0 0.0 0.00 0.33 0.33 78 1009.0
20260506172217 10 0.0 4.8 0.00 0.33 0.33 77 1008.9
20260506171217 10 0.0 0.0 0.00 0.33 0.33 77 1008.8
20260506170237 10 0.0 0.0 0.00 0.33 0.33 76 1008.7
20260506165217 10 0.0 0.0 0.00 0.33 0.33 75 1008.6
20260506164217 10 5 0.0 1.6 0.00 0.33 0.33 75 1008.6
20260506163216 10 0.0 0.0 0.00 0.33 0.33 74 1008.5
20260506162217 10 0.0 1.6 0.00 0.33 0.33 73 1008.5
20260506161217 11 0.0 0.0 0.00 0.33 0.33 72 1008.5
20260506160217 11 0.0 0.0 0.00 0.33 0.33 72 1008.4
20260506155237 11 0.0 1.6 0.00 0.33 0.33 69 1008.4
20260506154216 11 316 0.0 4.8 0.00 0.33 0.33 68 1008.3
20260506153216 11 342 0.0 3.2 0.00 0.33 0.33 67 1008.3
20260506152217 11 319 6.4 12.9 0.00 0.33 0.33 67 1008.2
20260506151217 11 0.0 0.0 0.00 0.33 0.33 68 1008.2
20260506150217 11 0.0 0.0 0.00 0.33 0.33 69 1008.2
20260506145216 11 0.0 0.0 0.00 0.33 0.33 67 1008.2
20260506144216 11 315 0.0 3.2 0.00 0.33 0.33 69 1008.2
20260506143237 11 0.0 6.4 0.00 0.33 0.33 70 1008.1
20260506142216 11 0.0 0.0 0.00 0.33 0.33 72 1008.1
20260506141217 11 337 1.6 4.8 0.00 0.33 0.33 71 1008.2
20260506140237 11 0.0 0.0 0.00 0.33 0.33 72 1008.1
20260506135236 11 0.0 1.6 0.00 0.33 0.33 72 1008.1
20260506134216 11 333 1.6 11.3 0.00 0.33 0.33 73 1008.1
20260506133216 11 0.0 0.0 0.00 0.33 0.33 75 1008.1
20260506132216 11 323 0.0 4.8 0.00 0.33 0.33 76 1008.1
20260506131216 11 0.0 0.0 0.00 0.33 0.33 78 1008.0
20260506130216 11 0.0 0.0 0.00 0.33 0.33 77 1008.0
20260506125216 11 0.0 0.0 0.00 0.33 0.33 76 1007.9
20260506124236 11 0.0 0.0 0.00 0.33 0.33 76 1007.9
20260506123216 11 0.0 0.0 0.00 0.33 0.33 76 1007.8
20260506122216 11 326 0.0 6.4 0.00 0.33 0.33 78 1007.7
20260506121216 11 0.0 0.0 0.00 0.33 0.33 79 1007.7
20260506120236 10 0.0 1.6 0.00 0.33 0.33 81 1007.7
20260506115216 10 0.0 0.0 0.00 0.36 0.33 82 1007.6
20260506114216 10 0.0 0.0 0.00 0.36 0.33 83 1007.7
20260506113216 10 0.0 3.2 0.00 0.36 0.33 82 1007.6
20260506112216 10 10 0.0 11.3 0.00 0.36 0.33 83 1007.5
20260506111236 10 326 0.0 6.4 0.00 0.36 0.33 85 1007.5
20260506110236 10 0.0 0.0 0.00 0.36 0.33 85 1007.5